Regional Weather Roundup
Issued by NWS State College, PA

Home | Current Version | Previous Version | Graphics & Text | Print | Product List | Glossary Off
Versions: 1 2 3 4 5 6 7 8 9 10 11 12 13 14 15 16 17 18 19 20 21 22 23 24 25 26 27 28 29 30 31 32 33 34 35 36 37 38 39 40 41 42 43 44 45 46 47 48 49 50

000
ASUS41 KCTP 271310
RWRCTP

REGIONAL WEATHER ROUNDUP
NATIONAL WEATHER SERVICE STATE COLLEGE PA
900 AM EDT SAT AUG 27 2016

Note: "fair" indicates few or no clouds below 12,000 feet with no
significant weather and/or obstructions to visibility.

* = STATION THAT DOES NOT REPORT PRECIPITATION /E.G. RAIN...SNOW...ETC/
    THUNDER OR FOG.

PAZ002>004-007>009-013>016-020>023-029>032-271400-
WESTERN PENNSYLVANIA

CITY           SKY/WX    TMP DP  RH WIND       PRES   REMARKS
ERIE           SUNNY     72  65  78 S6        30.20S
MEADVILLE      SUNNY     67  60  78 E8        30.23S
FRANKLIN*        N/A     63  57  82 E3        30.24S
NEW CASTLE     FAIR      71  64  78 E3        30.21F
BEAVER COUNTY  NOT AVBL
BUTLER*        NOT AVBL
PITTSBURGH INT PTSUNNY   69  63  81 E3        30.20R
PITTSBURGH     MOSUNNY   71  63  75 NE3       30.20S
INDIANA*       SUNNY     70  64  83 VRB6      30.26S
LATROBE        SUNNY     68  68 100 NE7       30.22S
WASHINGTON CO* CLOUDY    68  64  88 CALM      30.20F
$$

PAZ004>006-010>012-017>019-024>028-033>037-041-042-045-046-049>053-271400-
CENTRAL PENNSYLVANIA

CITY           SKY/WX    TMP DP  RH WIND       PRES   REMARKS
BRADFORD       SUNNY     65  63  93 SE3       30.28R
DUBOIS         CLOUDY    66  60  81 E6        30.25S
CLEARFIELD     CLOUDY    65  63  93 CALM      30.26S
JOHNSTOWN      CLOUDY    71  63  75 CALM      30.27R
ALTOONA        CLOUDY    69  65  86 CALM      30.26R
STATE COLLEGE  SUNNY     68  64  88 CALM      30.25S
WILLIAMSPORT   SUNNY     71  63  75 W5        30.22R
SELINSGROVE    SUNNY     73  70  90 CALM      30.23R
FT INDIANTOWN  SUNNY     76  67  72 E2        30.21R
CAPITAL CITY   SUNNY     78  66  66 CALM      30.20S
HARRISBURG     MOSUNNY   76  69  79 CALM      30.20R
YORK           SUNNY     76  68  76 CALM      30.21R
$$

PAZ038>040-043-044-047-048-054-055-060>062-067>071-271400-
EASTERN PENNSYLVANIA

CITY           SKY/WX    TMP DP  RH WIND       PRES   REMARKS
SCRANTON       SUNNY     71  63  75 N3        30.23S
MOUNT POCONO   SUNNY     71  58  63 E7        30.27R
ALLENTOWN      SUNNY     75  64  68 CALM      30.21R
QUAKERTOWN*    SUNNY     75  64  69 CALM      30.21S
READING        SUNNY     75  65  70 N5        30.19S
LANCASTER      SUNNY     77  68  73 CALM      30.20S
COATESVILLE    SUNNY     77  64  65 NE5       30.21F
POTTSTOWN      SUNNY     76  64  66 N8        30.21S
BLUE BELL      SUNNY     75  64  69 NE5       30.19R
DOYLESTOWN     SUNNY     78  67  68 N7        30.19S
WILLOW GROVE   NOT AVBL
NORTH PHILA    SUNNY     79  65  62 NE10      30.20R
PHILADELPHIA   MOSUNNY   81  63  54 NE9       30.18R
$$




USA.gov is the U.S. government's official web portal to all federal, state and local government web resources and services.